7 * 24
多渠道服务支持
STARLINK-35650是美国SpaceX公司星链(Starlink)星座的一颗低轨通信卫星,于2025年11月21日发射入轨。作为第二代星链卫星,它依托550公里近地轨道,配备先进星间激光链路与相控阵天线,提供低时延高速互联网服务,支持全球覆盖,拓展偏远地区、海洋、航空等场景接入能力,助力星链构建完善的全球卫星通信网络。
美国
(US)
| 数据来源 | 国际轨道数据 |
| 星历时间: | 2026-03-13T09:39:24+0800 1天前 查看轨道信息 |
| 半长轴: | 6861.175km |
| 偏心率: | 0.0002127 |
| 轨道倾角: | 43.006° |
| 近地点辐角 | 265.975° |
| 升交点赤经 | 328.234° |
| 平近点角 | 94.085° |
| 近地点: | 481.578km |
| 远地点: | 484.498km |
| 周期: | 94.267分钟 |
| 每日圈数: | 15.275839 |